Weather in Pushnoy

Russia / Republic of Karelia     64°24′02″N   34°08′38″E
temp.,
°C
wind,
m/s
gust,
m/s
humid.,
%
clouds,
%
prec.,
mm/h
press.,
hPa
HPBL,
m
8 march, mon
mon800:00−19nne49100100 0.1 1008273
03:00−21nne410100100 0.1 1011304
06:00−21nne410100100 0.1 1012346
09:00−21nne4999100 0.1 1014365
12:00−19nne4796100 0.1 1016438
15:00−19nne4793100 0.1 1017495
18:00−23nne2398100 0.0 101964
21:00−27nne2210096 0.0 102019
9 march, tue
tue900:00−27n2210034 0.0 102119
03:00−28nnw229924 0.0 102319
06:00−28nnw129912 0.0 102319
09:00−26nw12976 0.0 102432
12:00−19w23890 0.0 1026239
15:00−16w358712 0.0 1026297
18:00−18w378965 0.0 1025190
21:00−18wnw4108661 0.0 1026227
10 march, wed
wed1000:00−18wnw488980 0.0 1027183
03:00−18wnw488666 0.0 1027190
06:00−18wnw388494 0.0 1027171
09:00−17wnw498090 0.0 1028214
12:00−13wnw368263 0.0 1028260
15:00−11w378234 0.0 1028371
18:00−14wsw37890 0.0 1028153
21:00−17wsw39860 0.0 1027157
11 march, thu
thu1100:00−17wsw411810 0.0 1027245
03:00−17wsw413790 0.0 1026318
06:00−17wsw412820 0.0 1024316
09:00−15wsw615740 0.0 1023478
12:00−10sw613760 0.0 1021691
15:00−8sw6127619 0.0 1019761
18:00−10sw5138046 0.0 1016592
21:00−12ssw6148726 0.0 1014478
12 march, fri
fri1200:00−12sw6149186 0.0 1013482
03:00−12sw5149192 0.0 1011509
06:00−10ssw51391100 0.0 1009507
09:00−9ssw61491100 0.1 1008599
12:00−6ssw6148545 0.0 1006659
15:00−5ssw7138523 0.0 1005760
18:00−6ssw6158761 0.0 1004751
21:00−6ssw6168780 0.0 1003809